FW2987 Weather Reports


time (UTC)temp
C
wind
direction
speed
KPH
gust
KPH
rain 1hr
cm
rain 24hr
cm
rain mn
cm
humidity
%
barometer
mb
20260510103533 13 311 11.3 30.6 0.00 0.13 0.13 100 1008.1
20260510103022 13 5 6.4 20.9 0.00 0.13 0.13 100 1008.3
20260510102519 13 304 6.4 20.9 0.00 0.13 0.13 100 1008.3
20260510102019 13 308 8.0 29.0 0.00 0.13 0.13 100 1008.2
20260510101514 13 338 6.4 22.5 0.03 0.13 0.13 100 1008.3
20260510101016 13 331 9.7 20.9 0.03 0.13 0.13 100 1008.4
20260510100510 13 340 8.0 19.3 0.03 0.13 0.13 100 1008.4
20260510100001 13 301 9.7 20.9 0.03 0.13 0.13 100 1008.2
20260510094507 13 329 6.4 20.9 0.03 0.13 0.13 100 1008.4
20260510094004 13 317 9.7 20.9 0.03 0.13 0.13 100 1008.5
20260510093504 13 343 11.3 19.3 0.03 0.13 0.13 100 1008.4
20260510093001 13 310 9.7 19.3 0.03 0.13 0.13 100 1008.6
20260509191654 18 5 3.2 8.0 0.00 0.28 0.28 100 1010.0
20260509190653 18 5 1.6 6.4 0.00 0.28 0.28 100 1009.9
20260509190148 19 5 3.2 6.4 0.00 0.28 0.28 100 1009.8
20260509185640 19 5 1.6 4.8 0.00 0.28 0.28 100 1009.9
20260509185137 19 5 3.2 4.8 0.00 0.28 0.28 100 1009.8
20260509184707 19 5 1.6 4.8 0.00 0.28 0.28 100 1009.8
20260509184132 19 5 0.0 0.0 0.00 0.28 0.28 100 1009.8
20260509183632 19 5 0.0 3.2 0.00 0.28 0.28 100 1009.7
20260509183131 19 5 1.6 6.4 0.00 0.28 0.28 100 1009.7
20260509182626 19 5 1.6 6.4 0.00 0.28 0.28 100 1009.6
20260509182124 19 5 1.6 6.4 0.00 0.28 0.28 100 1009.5
20260509181623 19 5 1.6 8.0 0.00 0.28 0.28 100 1009.5
20260509181120 19 5 3.2 9.7 0.00 0.28 0.28 100 1009.4
20260509180619 20 5 4.8 9.7 0.00 0.28 0.28 100 1009.6
20260509180119 20 5 3.2 8.0 0.00 0.28 0.28 100 1009.5
20260509175615 20 5 0.0 8.0 0.00 0.28 0.28 100 1009.5
20260509175112 20 5 3.2 8.0 0.00 0.28 0.28 100 1009.4
20260509174611 20 5 3.2 8.0 0.00 0.28 0.28 100 1009.4
20260509174106 20 5 1.6 9.7 0.00 0.28 0.28 100 1009.3
20260509173604 20 5 4.8 9.7 0.00 0.28 0.28 100 1009.4
20260509173058 20 5 3.2 9.7 0.00 0.28 0.28 100 1009.4
20260509172552 20 5 3.2 8.0 0.00 0.28 0.28 100 1009.4
20260509172053 20 5 1.6 8.0 0.00 0.28 0.28 100 1009.4
20260509171540 20 5 0.0 8.0 0.00 0.28 0.28 100 1009.5
20260509171038 20 9 3.2 9.7 0.00 0.28 0.28 100 1009.4
20260509170536 20 10 4.8 8.0 0.00 0.28 0.28 100 1009.5
20260509170034 20 10 3.2 12.9 0.00 0.28 0.28 100 1009.5
20260509165524 20 11 4.8 12.9 0.00 0.28 0.28 100 1009.6
20260509165022 20 13 3.2 9.7 0.00 0.28 0.28 100 1009.6
20260509164520 20 13 4.8 9.7 0.00 0.28 0.28 100 1009.6
20260509164019 20 19 1.6 8.0 0.00 0.28 0.28 100 1009.6
20260509163516 20 21 1.6 9.7 0.00 0.28 0.28 100 1009.7
20260509163014 20 21 6.4 9.7 0.00 0.28 0.28 100 1009.6
20260509162513 20 19 0.0 8.0 0.00 0.28 0.28 100 1009.7
20260509162010 20 19 1.6 9.7 0.00 0.28 0.28 100 1009.7
20260509161508 20 19 3.2 9.7 0.00 0.28 0.28 100 1009.7
20260509161008 20 21 3.2 9.7 0.00 0.28 0.28 100 1009.7
20260509160502 20 20 3.2 12.9 0.00 0.28 0.28 100 1009.8